1488927600.24,37749,8.88,73048.8,-11.81,-22.83,-22.87,0,*63
1488927601.49,37750,8.81,73050.3,-11.81,-22.83,-22.97,0,*6A
1488927602.75,37751,8.81,73048.0,-11.81,-22.67,-22.73,0,*6B
1488927603.97,37752,8.81,73046.5,-11.79,-22.67,-22.83,0,*60
1488927605.21,37753,8.81,73048.0,-11.81,-22.67,-22.67,0,*6C
1488927606.45,37754,8.81,73044.5,-11.81,-22.67,-22.83,0,*61
1488927607.69,37755,8.81,73048.8,-11.79,-22.73,-22.83,0,*62
1488927608.91,37756,8.81,73044.0,-11.79,-22.41,-22.53,0,*6D
1488927610.14,37757,8.81,73048.8,-11.79,-22.53,-22.57,0,*6B
1488927611.36,37758,8.81,73048.3,-11.79,-22.53,-22.57,0,*64
1488927612.58,37759,8.81,73044.5,-11.79,-22.27,-22.53,0,*62
1488927613.85,37760,8.81,73050.3,-11.73,-22.47,-22.53,0,*64
1488927615.09,37761,8.81,73046.0,-11.75,-22.47,-22.63,0,*60
1488927616.36,37762,8.81,73050.8,-11.73,-22.47,-22.53,0,*66
1488927617.63,37763,8.81,73050.3,-11.73,-22.47,-22.63,0,*64
1488927618.88,37764,8.81,73044.5,-11.73,-22.53,-22.63,0,*66
1488927620.1,37765,8.81,73050.8,-11.75,-22.53,-22.63,0,*61
1488927621.36,37766,8.81,73048.5,-11.73,-22.31,-22.37,0,*61
1488927622.66,37767,8.81,73048.5,-11.73,-22.31,-22.47,0,*67
1488927623.93,37768,8.81,73048.8,-11.73,-22.37,-22.47,0,*6E
1488927625.2,37769,8.81,73046.3,-11.73,-22.47,-22.63,0,*6E
1488927626.44,37770,8.88,73048.8,-11.73,-22.63,-22.63,0,*60
1488927627.68,37771,8.81,73050.8,-11.71,-22.63,-22.63,0,*63
1488927628.95,37772,8.81,73050.8,-11.71,-22.57,-22.73,0,*66
1488927630.21,37773,8.81,73048.8,-11.71,-22.57,-22.63,0,*66
1488927631.49,37774,8.88,73050.5,-11.71,-22.47,-22.63,0,*60
1488927632.75,37775,8.81,73048.5,-11.71,-22.63,-22.73,0,*66
1488927634.02,37776,8.81,73048.3,-11.71,-22.63,-22.73,0,*65
1488927635.31,37777,8.81,73050.3,-11.71,-22.73,-22.77,0,*61
1488927636.55,37778,8.81,73046.8,-11.69,-22.73,-22.87,0,*68
1488927637.81,37779,8.81,73050.5,-11.71,-22.63,-22.73,0,*6A
1488927639.08,37780,8.81,73048.5,-11.69,-22.73,-22.77,0,*60
1488927640.36,37781,8.81,73046.0,-11.71,-22.47,-22.63,0,*6A
1488927641.64,37782,8.81,73046.5,-11.71,-22.47,-22.63,0,*69
1488927642.88,37783,8.81,73048.5,-11.69,-22.57,-22.73,0,*61
1488927644.16,37784,8.88,73050.3,-11.71,-22.47,-22.63,0,*6F
1488927645.38,37785,8.81,73050.8,-11.69,-22.57,-22.63,0,*66
1488927646.61,37786,8.81,73050.3,-11.69,-22.57,-22.63,0,*65
1488927647.85,37787,8.81,73050.0,-11.69,-22.47,-22.63,0,*65
1488927649.08,37788,8.81,73048.3,-11.69,-22.57,-22.63,0,*6B
1488927650.35,37789,8.81,73050.0,-11.69,-22.47,-22.73,0,*6A
1488927651.59,37790,8.81,73048.3,-11.69,-22.47,-22.63,0,*63
1488927652.81,37791,8.81,73050.0,-11.69,-22.41,-22.57,0,*63
1488927654.12,37792,8.81,73048.5,-11.71,-22.47,-22.47,0,*6E
1488927655.37,37793,8.81,73044.5,-11.71,-22.57,-22.63,0,*68
1488927656.59,37794,8.81,73046.8,-11.69,-22.57,-22.63,0,*66
1488927657.82,37795,8.81,73050.5,-11.69,-22.57,-22.63,0,*67
1488927659.04,37796,8.81,73048.3,-11.69,-22.57,-22.63,0,*64
1488927660.28,37797,8.81,73048.3,-11.69,-22.63,-22.73,0,*63
1488927661.54,37798,8.81,73048.3,-11.67,-22.67,-22.73,0,*66
1488927662.81,37799,8.88,73050.5,-11.67,-22.57,-22.73,0,*64
1488927664.05,37800,8.88,73054.5,-11.67,-22.57,-22.83,0,*64
1488927665.31,37801,8.81,73048.8,-11.67,-22.67,-22.73,0,*69
1488927666.55,37802,8.81,73048.5,-11.67,-22.41,-22.57,0,*68
1488927667.8,37803,8.81,73050.8,-11.67,-22.53,-22.67,0,*69
1488927669.03,37804,8.81,73048.5,-11.65,-22.67,-22.73,0,*6E
1488927670.29,37805,8.81,73046.3,-11.67,-22.67,-22.73,0,*6D
1488927671.56,37806,8.81,73048.0,-11.67,-22.57,-22.73,0,*6D
1488927672.82,37807,8.81,73050.0,-11.67,-22.67,-22.73,0,*6F
1488927674.08,37808,8.88,73048.0,-11.67,-22.67,-22.73,0,*60
1488927675.3,37809,8.81,73050.0,-11.65,-22.67,-22.83,0,*6C
1488927676.54,37810,8.81,73050.5,-11.65,-22.73,-22.83,0,*61
1488927677.81,37811,8.81,73046.3,-11.67,-22.57,-22.73,0,*6B
1488927679.04,37812,8.81,73050.3,-11.65,-22.73,-22.83,0,*63
1488927680.28,37813,8.81,73046.3,-11.65,-22.73,-22.83,0,*62
1488927681.53,37814,8.81,73048.3,-11.65,-22.57,-22.73,0,*6C
1488927682.76,37815,8.81,73048.5,-11.65,-22.73,-22.87,0,*60
1488927683.98,37816,8.81,73050.5,-11.65,-22.83,-22.87,0,*6C
1488927685.25,37817,8.81,73048.5,-11.67,-22.57,-22.73,0,*6D
1488927686.49,37818,8.81,73050.3,-11.67,-22.41,-22.57,0,*63
1488927687.73,37819,8.88,73052.3,-11.67,-22.53,-22.67,0,*62
1488927688.97,37820,8.81,73048.3,-11.67,-22.67,-22.67,0,*6F
1488927690.21,37821,8.81,73046.5,-11.65,-22.57,-22.73,0,*6A
1488927691.45,37822,8.81,73048.0,-11.65,-22.57,-22.73,0,*69
1488927692.68,37823,8.81,73050.8,-11.65,-22.53,-22.67,0,*69
1488927693.91,37824,8.81,73044.8,-11.65,-22.67,-22.73,0,*6C
1488927695.15,37825,8.81,73050.0,-11.65,-22.67,-22.73,0,*6D
1488927696.37,37826,8.81,73042.8,-11.65,-22.57,-22.67,0,*68
1488927697.61,37827,8.88,73050.0,-11.65,-22.73,-22.83,0,*65
1488927698.83,37828,8.81,73048.5,-11.65,-22.57,-22.67,0,*66
1488927700.04,37829,8.81,73048.0,-11.65,-22.67,-22.67,0,*64
1488927701.26,37830,8.81,73046.3,-11.65,-22.57,-22.83,0,*65
1488927702.5,37831,8.81,73046.8,-11.65,-22.73,-22.83,0,*62
1488927703.74,37832,8.81,73044.5,-11.65,-22.73,-22.83,0,*61
1488927704.98,37833,8.81,73050.3,-11.65,-22.67,-22.73,0,*6A
1488927706.19,37834,8.81,73050.3,-11.65,-22.67,-22.83,0,*62
1488927707.44,37835,8.81,73048.3,-11.65,-22.57,-22.73,0,*6F
1488927708.65,37836,8.81,73050.3,-11.61,-22.37,-22.63,0,*6F
1488927709.87,37837,8.81,73048.5,-11.61,-22.37,-22.53,0,*6D
1488927711.11,37838,8.81,73048.3,-11.61,-22.47,-22.53,0,*65
1488927712.41,37839,8.81,73050.8,-11.59,-22.31,-22.47,0,*6B
1488927713.63,37840,8.81,73050.5,-11.61,-22.37,-22.53,0,*6D
1488927714.87,37841,8.81,73046.0,-11.61,-22.53,-22.77,0,*68
1488927716.08,37842,8.81,73048.5,-11.61,-22.63,-22.67,0,*69
1488927717.32,37843,8.81,73050.0,-11.61,-22.63,-22.77,0,*69
1488927718.53,37844,8.81,73044.8,-11.61,-22.63,-22.67,0,*6F
1488927719.74,37845,8.81,73048.3,-11.61,-22.53,-22.67,0,*6D
1488927720.99,37846,8.81,73050.3,-11.61,-22.47,-22.53,0,*6C
1488927722.23,37847,8.81,73050.8,-11.61,-22.47,-22.63,0,*6E
1488927723.45,37848,8.81,73048.3,-11.61,-22.53,-22.67,0,*60
1488927724.72,37849,8.81,73050.0,-11.59,-22.47,-22.57,0,*6C
1488927725.97,37850,8.81,73048.8,-11.59,-22.57,-22.63,0,*62
1488927727.21,37851,8.81,73050.3,-11.59,-22.57,-22.63,0,*63
1488927728.43,37852,8.81,73048.8,-11.61,-22.53,-22.67,0,*6B
1488927729.67,37853,8.81,73044.8,-11.61,-22.41,-22.47,0,*6B
1488927730.91,37854,8.81,73046.8,-11.59,-22.41,-22.57,0,*66
1488927732.13,37855,8.81,73050.3,-11.61,-22.53,-22.63,0,*68
1488927733.38,37856,8.81,73050.8,-11.59,-22.57,-22.63,0,*64
1488927734.63,37857,8.81,73050.5,-11.59,-22.57,-22.63,0,*65
1488927735.84,37858,8.81,73048.8,-11.61,-22.63,-22.83,0,*68
1488927737.1,37859,8.81,73050.0,-11.59,-22.63,-22.77,0,*69
1488927738.36,37860,8.81,73048.0,-11.57,-22.73,-22.77,0,*6C
1488927739.62,37861,8.81,73050.0,-11.59,-22.73,-22.87,0,*6C
1488927740.86,37862,8.81,73048.8,-11.59,-22.63,-22.87,0,*6E
1488927742.12,37863,8.81,73050.5,-11.59,-22.63,-22.77,0,*60
1488927743.41,37864,8.81,73050.0,-11.59,-22.73,-22.73,0,*62
1488927744.65,37865,8.81,73050.0,-11.61,-22.77,-22.93,0,*62
1488927745.92,37866,8.81,73050.3,-11.59,-22.77,-22.93,0,*6A
1488927747.19,37867,8.81,73048.0,-11.59,-22.73,-22.87,0,*6A
1488927748.41,37868,8.88,73050.8,-11.61,-22.93,-22.93,0,*65
1488927749.67,37869,8.81,73048.0,-11.59,-22.63,-22.77,0,*6A
1488927750.93,37870,8.81,73050.8,-11.59,-22.63,-22.73,0,*66
1488927752.2,37871,8.81,73048.8,-11.59,-22.57,-22.77,0,*64
1488927753.48,37872,8.81,73048.5,-11.59,-22.73,-22.73,0,*65
1488927754.72,37873,8.81,73050.5,-11.61,-22.67,-22.77,0,*6E
1488927755.93,37874,8.81,73050.0,-11.61,-22.67,-22.83,0,*62
1488927757.22,37875,8.81,73048.5,-11.59,-22.73,-22.77,0,*66
1488927758.44,37876,8.81,73050.8,-11.61,-22.53,-22.63,0,*69
1488927759.68,37877,8.81,73052.0,-11.59,-22.63,-22.63,0,*60
1488927760.98,37878,8.81,73050.8,-11.59,-22.47,-22.77,0,*6C
1488927762.25,37879,8.81,73050.8,-11.59,-22.47,-22.63,0,*68
1488927763.52,37880,8.81,73050.3,-11.59,-22.47,-22.57,0,*69
1488927764.81,37881,8.81,73050.0,-11.59,-22.31,-22.47,0,*68
1488927766.07,37882,8.81,73052.5,-11.59,-22.31,-22.41,0,*6D
1488927767.37,37883,8.81,73048.5,-11.59,-22.31,-22.47,0,*6A
1488927768.64,37884,8.81,73048.3,-11.57,-22.31,-22.47,0,*63
1488927769.88,37885,8.81,73050.3,-11.57,-22.27,-22.47,0,*65
1488927771.13,37886,8.81,73050.5,-11.57,-22.27,-22.47,0,*66
1488927772.37,37887,8.81,73048.8,-11.55,-22.37,-22.53,0,*61
1488927773.58,37888,8.81,73050.0,-11.57,-22.41,-22.57,0,*69
1488927774.82,37889,8.81,73048.8,-11.57,-22.31,-22.57,0,*6F
1488927776.06,37890,8.81,73048.3,-11.57,-22.31,-22.57,0,*67
1488927777.3,37891,8.81,73052.8,-11.57,-22.21,-22.57,0,*67
1488927778.54,37892,8.81,73052.0,-11.57,-22.31,-22.57,0,*65
1488927779.75,37893,8.81,73052.5,-11.57,-22.41,-22.63,0,*64
1488927780.99,37894,8.81,73048.0,-11.57,-22.41,-22.73,0,*62
1488927782.23,37895,8.81,73050.0,-11.57,-22.31,-22.63,0,*65
1488927783.47,37896,8.81,73052.8,-11.57,-22.47,-22.57,0,*60
1488927784.71,37897,8.81,73048.0,-11.55,-22.41,-22.57,0,*65
1488927785.95,37898,8.81,73050.8,-11.57,-22.31,-22.63,0,*68
1488927787.21,37899,8.81,73048.8,-11.57,-22.31,-22.73,0,*68
1488927788.45,37900,8.81,73052.5,-11.55,-22.53,-22.57,0,*69
1488927789.69,37901,8.81,73052.0,-11.57,-22.57,-22.73,0,*68
1488927790.96,37902,8.88,73054.3,-11.57,-22.47,-22.73,0,*6A
1488927792.22,37903,8.88,73052.0,-11.55,-22.53,-22.73,0,*6C
1488927793.49,37904,8.81,73052.5,-11.57,-22.47,-22.77,0,*68
1488927794.7,37905,8.81,73048.5,-11.57,-22.67,-22.83,0,*60
1488927795.97,37906,8.81,73052.3,-11.55,-22.57,-22.73,0,*6D
1488927797.2,37907,8.81,73050.0,-11.57,-22.73,-22.87,0,*63
1488927798.47,37908,8.81,73050.8,-11.55,-22.57,-22.73,0,*63
1488927799.72,37909,8.81,73054.0,-11.57,-22.57,-22.77,0,*64
1488927800.92,37910,8.81,73052.8,-11.57,-22.63,-22.87,0,*64
1488927802.17,37911,8.81,73052.5,-11.55,-22.57,-22.83,0,*64
1488927803.41,37912,8.81,73052.8,-11.57,-22.57,-22.73,0,*6A
1488927804.68,37913,8.81,73052.0,-11.57,-22.47,-22.77,0,*6E
1488927805.92,37914,8.81,73050.5,-11.57,-22.57,-22.77,0,*68
1488927807.13,37915,8.81,73054.0,-11.57,-22.41,-22.67,0,*6F
1488927808.39,37916,8.81,73052.0,-11.57,-22.47,-22.73,0,*6F
1488927809.63,37917,8.81,73054.0,-11.57,-22.63,-22.77,0,*6C
1488927810.84,37918,8.88,73052.8,-11.57,-22.63,-22.87,0,*6C
1488927812.08,37919,8.81,73054.5,-11.57,-22.77,-22.87,0,*68
1488927813.29,37920,8.81,73052.0,-11.57,-22.87,-22.93,0,*68
1488927814.54,37921,8.81,73052.5,-11.57,-22.57,-22.77,0,*6E
1488927815.78,37922,8.81,73050.8,-11.57,-22.57,-22.73,0,*69
1488927817.04,37923,8.88,73056.3,-11.57,-22.47,-22.73,0,*69
1488927818.28,37924,8.81,73050.8,-11.57,-22.57,-22.77,0,*6B
1488927819.53,37925,8.81,73054.3,-11.57,-22.57,-22.77,0,*6A
1488927820.77,37926,8.81,73052.5,-11.57,-22.73,-22.93,0,*65
1488927822.03,37927,8.81,73050.0,-11.55,-22.53,-22.73,0,*6A
1488927823.3,37928,8.81,73052.0,-11.55,-22.53,-22.73,0,*65
1488927824.57,37929,8.81,73054.5,-11.57,-22.47,-22.77,0,*67
1488927825.84,37930,8.81,73050.8,-11.57,-22.47,-22.77,0,*6F
1488927827.08,37931,8.81,73054.0,-11.57,-22.31,-22.57,0,*6D
1488927828.31,37932,8.81,73048.5,-11.57,-22.31,-22.57,0,*6E
1488927829.58,37933,8.81,73048.8,-11.57,-22.31,-22.47,0,*6E
1488927830.83,37934,8.81,73052.0,-11.55,-22.37,-22.53,0,*68
1488927832.09,37935,8.81,73050.5,-11.55,-22.37,-22.73,0,*6B
1488927833.3,37936,8.81,73054.0,-11.57,-22.63,-22.87,0,*60
1488927834.54,37937,8.81,73052.3,-11.55,-22.41,-22.83,0,*67
1488927835.8,37938,8.81,73054.5,-11.57,-22.31,-22.73,0,*62
1488927837.06,37939,8.81,73048.3,-11.57,-22.31,-22.73,0,*63
1488927838.3,37940,8.81,73052.3,-11.55,-22.37,-22.67,0,*6C
1488927839.54,37941,8.81,73052.8,-11.55,-22.37,-22.57,0,*6E
1488927840.8,37942,8.81,73048.8,-11.57,-22.47,-22.73,0,*6E
1488927842.07,37943,8.81,73050.5,-11.57,-22.47,-22.77,0,*6B
1488927843.33,37944,8.81,73048.0,-11.57,-22.47,-22.73,0,*68
1488927844.6,37945,8.81,73054.8,-11.57,-22.47,-22.73,0,*69
1488927845.84,37946,8.81,73052.5,-11.55,-22.37,-22.57,0,*69
1488927847.08,37947,8.81,73050.3,-11.55,-22.37,-22.67,0,*6B
1488927848.35,37948,8.81,73054.0,-11.55,-22.53,-22.73,0,*63
1488927849.59,37949,8.81,73048.0,-11.55,-22.27,-22.53,0,*63
1488927850.83,37950,8.81,73052.3,-11.55,-22.27,-22.63,0,*68
1488927852.07,37951,8.81,73054.5,-11.55,-22.37,-22.57,0,*6F
1488927853.31,37952,8.81,73050.3,-11.57,-22.31,-22.63,0,*6F
1488927854.55,37953,8.81,73050.8,-11.55,-22.37,-22.67,0,*6E
1488927855.79,37954,8.81,73054.0,-11.55,-22.37,-22.67,0,*69
1488927857.05,37955,8.81,73052.8,-11.55,-22.41,-22.73,0,*6C
1488927858.3,37956,8.81,73056.3,-11.55,-22.53,-22.67,0,*69
1488927859.56,37957,8.81,73054.0,-11.57,-22.47,-22.73,0,*6A
1488927860.83,37958,8.81,73052.8,-11.55,-22.53,-22.73,0,*62
1488927862.07,37959,8.81,73050.8,-11.55,-22.27,-22.57,0,*66
1488927863.31,37960,8.81,73050.8,-11.55,-22.37,-22.67,0,*6E
1488927864.54,37961,8.81,73050.3,-11.57,-22.41,-22.73,0,*69
1488927865.78,37962,8.81,73054.0,-11.55,-22.37,-22.67,0,*6C
1488927867.04,37963,8.81,73052.0,-11.57,-22.31,-22.73,0,*6C
1488927868.28,37964,8.81,73054.0,-11.57,-22.41,-22.73,0,*6C
1488927869.52,37965,8.81,73054.5,-11.57,-22.31,-22.63,0,*6B
1488927870.78,37966,8.81,73054.0,-11.57,-22.47,-22.73,0,*68
1488927872.05,37967,8.81,73052.8,-11.55,-22.53,-22.73,0,*6E
1488927873.31,37968,8.81,73054.3,-11.55,-22.41,-22.73,0,*62
1488927874.55,37969,8.81,73052.0,-11.57,-22.57,-22.77,0,*62
1488927875.79,37970,8.81,73054.8,-11.57,-22.31,-22.63,0,*6F
1488927877.03,37971,8.88,73058.3,-11.57,-22.41,-22.77,0,*6C
1488927878.24,37972,8.81,73054.0,-11.57,-22.41,-22.83,0,*64
1488927879.5,37973,8.88,73056.5,-11.55,-22.41,-22.77,0,*6C
1488927880.77,37974,8.81,73054.5,-11.57,-22.47,-22.77,0,*6F
1488927882.01,37975,8.81,73052.3,-11.55,-22.27,-22.53,0,*6C
1488927883.25,37976,8.81,73052.5,-11.57,-22.41,-22.73,0,*6F
1488927884.49,37977,8.81,73052.0,-11.57,-22.31,-22.63,0,*68
1488927885.7,37978,8.81,73052.5,-11.57,-22.41,-22.63,0,*60
1488927886.91,37979,8.81,73052.0,-11.57,-22.27,-22.57,0,*66
1488927888.13,37980,8.81,73054.5,-11.57,-22.27,-22.53,0,*64
1488927889.39,37981,8.81,73054.5,-11.55,-22.21,-22.57,0,*65
1488927890.63,37982,8.81,73054.8,-11.55,-22.37,-22.67,0,*62
1488927891.87,37983,8.81,73052.3,-11.55,-22.41,-22.83,0,*68
1488927893.14,37984,8.81,73052.3,-11.55,-22.53,-22.73,0,*63
1488927894.38,37985,8.81,73052.0,-11.55,-22.27,-22.67,0,*64
1488927895.62,37986,8.81,73052.5,-11.55,-22.41,-22.67,0,*67
1488927896.88,37987,8.88,73058.0,-11.55,-22.41,-22.73,0,*63
1488927898.09,37988,8.81,73050.8,-11.57,-22.41,-22.87,0,*65
1488927899.35,37989,8.81,73052.8,-11.55,-22.37,-22.73,0,*6C
1488927900.59,37990,8.81,73054.5,-11.55,-22.37,-22.67,0,*61
1488927901.83,37991,8.81,73054.0,-11.55,-22.37,-22.83,0,*6A
1488927903.07,37992,8.81,73052.8,-11.57,-22.47,-22.87,0,*68
1488927904.31,37993,8.81,73056.0,-11.57,-22.41,-22.77,0,*60
1488927905.57,37994,8.81,73050.5,-11.55,-22.27,-22.73,0,*61
1488927906.81,37995,8.81,73052.0,-11.55,-22.27,-22.67,0,*65
1488927908.07,37996,8.81,73052.0,-11.57,-22.47,-22.73,0,*67
1488927909.34,37997,8.81,73050.3,-11.55,-22.37,-22.73,0,*63
1488927910.58,37998,8.81,73052.0,-11.55,-22.27,-22.67,0,*68
1488927911.81,37999,8.81,73054.8,-11.55,-22.27,-22.67,0,*69
1488927913.06,38000,8.81,73056.3,-11.55,-22.37,-22.67,0,*6E
1488927914.32,38001,8.81,73052.3,-11.55,-22.21,-22.41,0,*6C
1488927915.53,38002,8.81,73054.5,-11.57,-22.27,-22.63,0,*6B
1488927916.77,38003,8.88,73058.3,-11.55,-22.37,-22.67,0,*6D
1488927918.01,38004,8.81,73054.8,-11.57,-22.37,-22.73,0,*6D
1488927919.27,38005,8.81,73052.5,-11.57,-22.31,-22.73,0,*6A
1488927920.5,38006,8.81,73052.0,-11.57,-22.41,-22.73,0,*6E
1488927921.72,38007,8.81,73052.0,-11.57,-22.57,-22.87,0,*63
1488927922.96,38008,8.81,73052.5,-11.55,-22.37,-22.67,0,*66
1488927924.2,38009,8.81,73052.8,-11.57,-22.41,-22.77,0,*65
1488927925.47,38010,8.81,73054.0,-11.57,-22.47,-22.77,0,*6B
1488927926.7,38011,8.81,73056.3,-11.57,-22.41,-22.73,0,*68
1488927927.91,38012,8.81,73054.3,-11.57,-22.57,-22.87,0,*67
1488927929.13,38013,8.81,73052.0,-11.57,-22.57,-22.87,0,*66
1488927930.4,38014,8.81,73056.3,-11.57,-22.31,-22.77,0,*6E
1488927931.63,38015,8.81,73058.5,-11.57,-22.41,-22.77,0,*68
1488927932.87,38016,8.81,73054.5,-11.55,-22.41,-22.83,0,*62
1488927934.11,38017,8.81,73058.5,-11.57,-22.73,-22.93,0,*61
1488927935.35,38018,8.81,73056.8,-11.55,-22.41,-22.83,0,*6C
1488927936.61,38019,8.88,73058.0,-11.55,-22.41,-22.73,0,*62
1488927937.82,38020,8.81,73058.3,-11.57,-22.57,-22.87,0,*66
1488927939.09,38021,8.81,73052.3,-11.57,-22.47,-22.77,0,*69
1488927940.33,38022,8.81,73056.5,-11.55,-22.27,-22.67,0,*6F
1488927941.57,38023,8.81,73056.8,-11.57,-22.41,-22.73,0,*69
1488927942.78,38024,8.81,73058.0,-11.57,-22.57,-22.87,0,*62
1488927944.0,38025,8.81,73054.3,-11.57,-22.57,-22.87,0,*63
1488927945.26,38026,8.81,73052.5,-11.57,-22.31,-22.77,0,*6F
1488927946.5,38027,8.81,73052.5,-11.57,-22.31,-22.63,0,*6B
1488927947.72,38028,8.81,73054.8,-11.57,-22.41,-22.63,0,*63
1488927948.98,38029,8.81,73052.0,-11.57,-22.31,-22.73,0,*64
1488927950.24,38030,8.81,73056.8,-11.57,-22.31,-22.73,0,*6C
1488927951.47,38031,8.81,73056.3,-11.57,-22.41,-22.73,0,*6A
1488927952.69,38032,8.81,73052.0,-11.57,-22.57,-22.87,0,*65
1488927953.93,38033,8.81,73054.8,-11.57,-22.41,-22.77,0,*6C
1488927955.17,38034,8.81,73054.0,-11.57,-22.31,-22.63,0,*69
1488927956.43,38035,8.81,73054.5,-11.55,-22.21,-22.57,0,*6C
1488927957.69,38036,8.81,73058.3,-11.57,-22.31,-22.73,0,*6A
1488927958.96,38037,8.81,73056.5,-11.55,-22.41,-22.77,0,*6A
1488927960.22,38038,8.81,73052.8,-11.57,-22.31,-22.77,0,*60
1488927961.46,38039,8.81,73056.3,-11.57,-22.31,-22.63,0,*64
1488927962.7,38040,8.81,73054.3,-11.57,-22.31,-22.57,0,*6D
1488927963.97,38041,8.81,73054.0,-11.55,-22.21,-22.53,0,*6B
1488927965.18,38042,8.81,73054.5,-11.57,-22.27,-22.63,0,*6F
1488927966.44,38043,8.81,73058.0,-11.57,-22.31,-22.73,0,*68
1488927967.69,38044,8.81,73056.8,-11.57,-22.31,-22.63,0,*6E
1488927968.9,38045,8.81,73054.5,-11.57,-22.27,-22.63,0,*68
1488927970.14,38046,8.81,73054.0,-11.55,-22.27,-22.57,0,*6E
1488927971.41,38047,8.81,73056.8,-11.57,-22.17,-22.47,0,*6F
1488927972.68,38048,8.81,73056.0,-11.55,-22.21,-22.53,0,*62
1488927973.95,38049,8.81,73058.3,-11.55,-22.21,-22.57,0,*67
1488927975.16,38050,8.81,73056.8,-11.57,-22.27,-22.67,0,*68
1488927976.43,38051,8.81,73054.8,-11.57,-22.31,-22.77,0,*6F
1488927977.69,38052,8.81,73058.0,-11.57,-22.31,-22.73,0,*68
1488927978.9,38053,8.81,73056.8,-11.57,-22.41,-22.87,0,*65
1488927980.13,38054,8.81,73056.3,-11.57,-22.41,-22.77,0,*6D
1488927981.4,38055,8.81,73058.0,-11.57,-22.31,-22.77,0,*6B
1488927982.64,38056,8.81,73058.5,-11.57,-22.17,-22.57,0,*6E
1488927983.88,38057,8.81,73058.5,-11.57,-22.27,-22.73,0,*6A
1488927985.09,38058,8.81,73052.3,-11.57,-22.41,-22.87,0,*6E
1488927986.33,38059,8.81,73054.8,-11.57,-22.31,-22.63,0,*62
1488927987.59,38060,8.81,73052.5,-11.57,-22.31,-22.73,0,*69
1488927988.82,38061,8.81,73056.8,-11.57,-22.31,-22.87,0,*63
1488927990.06,38062,8.81,73054.8,-11.57,-22.41,-22.77,0,*68
1488927991.3,38063,8.81,73056.3,-11.57,-22.41,-22.77,0,*69
1488927992.52,38064,8.81,73056.5,-11.57,-22.57,-22.87,0,*66
1488927993.78,38065,8.81,73052.3,-11.59,-22.41,-22.77,0,*61
1488927995.05,38066,8.81,73052.8,-11.59,-22.31,-22.63,0,*60
1488927996.29,38067,8.81,73056.5,-11.57,-22.31,-22.63,0,*6F
1488927997.55,38068,8.81,73054.5,-11.57,-22.31,-22.73,0,*61
1488927998.79,38069,8.81,73058.3,-11.57,-22.31,-22.63,0,*61
1488928000.08,38070,8.81,73058.0,-11.59,-22.31,-22.77,0,*62
1488928001.37,38071,8.81,73056.5,-11.59,-22.31,-22.77,0,*63
1488928002.61,38072,8.81,73058.8,-11.59,-22.41,-22.87,0,*68
1488928003.9,38073,8.81,73054.8,-11.59,-22.31,-22.73,0,*65
1488928005.19,38074,8.81,73056.5,-11.59,-22.31,-22.73,0,*62
1488928006.43,38075,8.81,73052.8,-11.59,-22.27,-22.63,0,*65
1488928007.67,38076,8.81,73056.5,-11.59,-22.27,-22.57,0,*61
1488928008.91,38077,8.81,73054.5,-11.59,-22.27,-22.63,0,*67
1488928010.17,38078,8.81,73056.8,-11.59,-22.27,-22.73,0,*69
1488928011.43,38079,8.81,73058.5,-11.59,-22.27,-22.73,0,*68
1488928012.65,38080,8.81,73058.3,-11.61,-22.37,-22.83,0,*6B
1488928013.91,38081,8.81,73058.0,-11.59,-22.31,-22.63,0,*69
1488928015.2,38082,8.81,73058.8,-11.59,-22.31,-22.73,0,*6B
1488928016.49,38083,8.81,73056.8,-11.59,-22.31,-22.73,0,*6A
1488928017.78,38084,8.81,73058.0,-11.59,-22.31,-22.73,0,*6D
1488928019.05,38085,8.81,73056.5,-11.59,-22.17,-22.57,0,*6E
1488928020.29,38086,8.81,73058.3,-11.59,-22.27,-22.57,0,*6E
1488928021.55,38087,8.81,73056.5,-11.59,-22.27,-22.73,0,*69
1488928022.84,38088,8.81,73052.5,-11.59,-22.31,-22.77,0,*65
1488928024.11,38089,8.81,73060.3,-11.59,-22.31,-22.63,0,*61
1488928025.37,38090,8.81,73054.5,-11.57,-22.31,-22.73,0,*66
1488928026.61,38091,8.81,73056.0,-11.57,-22.47,-22.87,0,*6D
1488928027.87,38092,8.81,73056.8,-11.57,-22.31,-22.77,0,*60
1488928029.11,38093,8.81,73058.5,-11.57,-22.41,-22.77,0,*66
1488928030.38,38094,8.81,73056.3,-11.57,-22.31,-22.77,0,*66
1488928031.61,38095,8.81,73056.3,-11.57,-22.31,-22.87,0,*68
1488928032.9,38096,8.81,73056.0,-11.59,-22.31,-22.77,0,*6A
1488928034.14,38097,8.81,73052.3,-11.59,-22.41,-22.87,0,*63
1488928035.35,38098,8.81,73058.3,-11.61,-22.41,-22.87,0,*67
1488928036.64,38099,8.81,73056.8,-11.59,-22.31,-22.77,0,*65
1488928037.94,38100,8.81,73054.5,-11.59,-22.31,-22.77,0,*64
1488928039.23,38101,8.81,73056.8,-11.59,-22.31,-22.77,0,*65
1488928040.47,38102,8.81,73056.3,-11.59,-22.41,-22.87,0,*6E
1488928041.71,38103,8.81,73058.3,-11.61,-22.47,-22.83,0,*66
1488928042.99,38104,8.81,73058.8,-11.59,-22.31,-22.73,0,*64
1488928044.29,38105,8.81,73058.3,-11.59,-22.31,-22.77,0,*61
1488928045.55,38106,8.81,73052.3,-11.59,-22.41,-22.77,0,*65
1488928046.84,38107,8.81,73056.8,-11.59,-22.31,-22.77,0,*63
1488928048.11,38108,8.81,73058.5,-11.61,-22.47,-22.77,0,*66
1488928049.35,38109,8.81,73056.0,-11.61,-22.31,-22.83,0,*6D
1488928050.64,38110,8.81,73056.5,-11.59,-22.31,-22.77,0,*65
1488928051.93,38111,8.81,73056.0,-11.59,-22.31,-22.73,0,*60
1488928053.14,38112,8.81,73058.5,-11.61,-22.37,-22.83,0,*61
1488928054.36,38113,8.81,73054.0,-11.61,-22.37,-22.83,0,*60
1488928055.62,38114,8.81,73056.5,-11.59,-22.27,-22.73,0,*62
1488928056.88,38115,8.81,73054.0,-11.59,-22.31,-22.87,0,*6F
1488928058.1,38116,8.81,73056.3,-11.61,-22.37,-22.97,0,*60
1488928059.36,38117,8.81,73058.3,-11.61,-22.31,-22.77,0,*69
1488928060.63,38118,8.81,73056.3,-11.61,-22.31,-22.77,0,*66
1488928061.89,38119,8.81,73054.0,-11.59,-22.27,-22.73,0,*6F
1488928063.13,38120,8.81,73056.5,-11.61,-22.27,-22.77,0,*6A
1488928064.38,38121,8.81,73058.0,-11.61,-22.47,-23.09,0,*65
1488928065.67,38122,8.81,73056.0,-11.59,-22.47,-22.77,0,*65
1488928066.89,38123,8.81,73056.5,-11.61,-22.37,-22.83,0,*63
1488928068.13,38124,8.81,73056.5,-11.61,-22.47,-22.83,0,*63
1488928069.42,38125,8.88,73060.0,-11.59,-22.31,-22.77,0,*63
1488928070.68,38126,8.81,73056.8,-11.59,-22.27,-22.77,0,*67
1488928071.95,38127,8.81,73054.5,-11.61,-22.31,-22.77,0,*6A
1488928073.19,38128,8.81,73056.3,-11.59,-22.41,-22.87,0,*66
1488928074.48,38129,8.81,73056.0,-11.59,-22.31,-22.77,0,*6F
1488928075.69,38130,8.81,73058.5,-11.61,-22.37,-22.83,0,*61
1488928076.93,38131,8.81,73052.3,-11.61,-22.27,-22.77,0,*6A
1488928078.17,38132,8.81,73058.0,-11.59,-22.41,-22.93,0,*68
1488928079.42,38133,8.81,73058.8,-11.61,-22.47,-22.93,0,*64
1488928080.68,38134,8.81,73052.5,-11.59,-22.41,-23.03,0,*66
1488928081.95,38135,8.81,73058.8,-11.59,-22.31,-22.87,0,*6D
1488928083.19,38136,8.81,73054.3,-11.59,-22.41,-22.93,0,*6C
1488928084.43,38137,8.81,73054.5,-11.61,-22.31,-22.93,0,*61
1488928085.68,38138,8.81,73056.0,-11.61,-22.47,-23.09,0,*6D
1488928086.94,38139,8.81,73052.8,-11.59,-22.31,-22.87,0,*61
1488928088.16,38140,8.81,73056.8,-11.61,-22.37,-22.83,0,*66
1488928089.42,38141,8.81,73052.8,-11.59,-22.31,-22.87,0,*6E
1488928090.64,38142,8.81,73056.5,-11.61,-22.37,-22.93,0,*65
1488928091.85,38143,8.81,73056.3,-11.61,-22.37,-22.83,0,*65
1488928093.09,38144,8.81,73054.0,-11.59,-22.41,-22.87,0,*6C
1488928094.34,38145,8.81,73052.5,-11.61,-22.47,-22.97,0,*61
1488928095.55,38146,8.81,73056.0,-11.61,-22.37,-22.83,0,*60
1488928096.82,38147,8.81,73052.8,-11.59,-22.31,-22.93,0,*6D
1488928098.04,38148,8.81,73056.8,-11.61,-22.37,-22.97,0,*6B